| time (UTC) | temp F | wind direction | speed knots | gust knots | rain 1hr in | rain 24hr in | rain mn in | humidity % | barometer mb |
| 20260507224222 | 59 | 0.0 | 0.0 | 0.00 | 0.00 | 0.00 | 65 | 1013.3 | |
| 20260507223222 | 59 | 0.0 | 0.0 | 0.00 | 0.00 | 0.00 | 66 | 1013.4 | |
| 20260507222222 | 59 | 0.0 | 0.0 | 0.00 | 0.00 | 0.00 | 67 | 1013.3 | |
| 20260507221222 | 59 | 0.0 | 0.0 | 0.00 | 0.00 | 0.00 | 67 | 1013.3 | |
| 20260507220222 | 60 | 0.0 | 0.0 | 0.00 | 0.00 | 0.00 | 63 | 1013.3 | |
| 20260507215222 | 60 | 0.0 | 0.0 | 0.00 | 0.00 | 0.00 | 64 | 1013.3 | |
| 20260507214222 | 60 | 0.0 | 0.0 | 0.00 | 0.00 | 0.00 | 62 | 1013.3 | |
| 20260507213223 | 60 | 0.0 | 0.0 | 0.00 | 0.00 | 0.00 | 63 | 1013.3 | |
| 20260507212222 | 60 | 0.0 | 0.0 | 0.00 | 0.00 | 0.00 | 61 | 1013.3 | |
| 20260507211222 | 60 | 0.0 | 0.0 | 0.00 | 0.00 | 0.00 | 59 | 1013.3 | |
| 20260507210222 | 61 | 0.0 | 0.0 | 0.00 | 0.00 | 0.00 | 62 | 1013.3 | |
| 20260507205222 | 61 | 0.0 | 0.0 | 0.00 | 0.00 | 0.00 | 65 | 1013.3 | |
| 20260507204222 | 61 | 0.0 | 0.0 | 0.00 | 0.00 | 0.00 | 62 | 1013.1 | |
| 20260507203222 | 61 | 0.0 | 0.0 | 0.00 | 0.00 | 0.00 | 61 | 1013.2 | |
| 20260507202222 | 61 | 0.0 | 0.0 | 0.00 | 0.00 | 0.00 | 62 | 1013.1 | |
| 20260507201222 | 62 | 0.0 | 0.0 | 0.00 | 0.00 | 0.00 | 63 | 1013.1 | |
| 20260507200222 | 63 | 0.0 | 0.0 | 0.00 | 0.00 | 0.00 | 60 | 1013.1 | |
| 20260507195222 | 63 | 0.0 | 0.0 | 0.00 | 0.00 | 0.00 | 58 | 1013.1 | |
| 20260507194221 | 64 | 0.0 | 0.0 | 0.00 | 0.00 | 0.00 | 57 | 1012.9 | |
| 20260507193222 | 64 | 0.0 | 0.0 | 0.00 | 0.00 | 0.00 | 57 | 1013.1 | |
| 20260507192222 | 65 | 0.0 | 0.0 | 0.00 | 0.00 | 0.00 | 53 | 1013.1 | |
| 20260507191222 | 65 | 0.0 | 0.0 | 0.00 | 0.00 | 0.00 | 48 | 1012.9 | |
| 20260507190221 | 65 | 0.0 | 0.0 | 0.00 | 0.00 | 0.00 | 52 | 1012.7 | |
| 20260507185221 | 65 | 0.0 | 0.0 | 0.00 | 0.00 | 0.00 | 55 | 1012.9 | |
| 20260507184222 | 65 | 0.0 | 0.0 | 0.00 | 0.00 | 0.00 | 58 | 1012.9 | |
| 20260507183222 | 66 | 0.0 | 0.0 | 0.00 | 0.00 | 0.00 | 58 | 1012.9 | |
| 20260507182221 | 66 | 0.0 | 0.0 | 0.00 | 0.00 | 0.00 | 57 | 1012.9 | |
| 20260507181221 | 67 | 0.0 | 0.0 | 0.00 | 0.00 | 0.00 | 57 | 1013.0 | |
| 20260507180221 | 67 | 0.0 | 0.0 | 0.00 | 0.00 | 0.00 | 56 | 1013.0 | |
| 20260507175223 | 68 | 0.0 | 0.0 | 0.00 | 0.00 | 0.00 | 53 | 1013.0 | |
| 20260507174221 | 69 | 0.0 | 0.0 | 0.00 | 0.00 | 0.00 | 52 | 1012.8 | |
| 20260507173222 | 69 | 0.0 | 0.0 | 0.00 | 0.00 | 0.00 | 51 | 1012.9 | |
| 20260507172222 | 70 | 0.0 | 0.0 | 0.00 | 0.00 | 0.00 | 49 | 1012.9 | |
| 20260507171221 | 72 | 0.0 | 0.0 | 0.00 | 0.00 | 0.00 | 46 | 1012.9 | |
| 20260507170222 | 77 | 0.0 | 0.0 | 0.00 | 0.00 | 0.00 | 39 | 1012.7 | |
| 20260507165221 | 78 | 0.0 | 0.0 | 0.00 | 0.00 | 0.00 | 38 | 1012.8 | |
| 20260507164221 | 78 | 0.0 | 0.0 | 0.00 | 0.00 | 0.00 | 40 | 1012.8 | |
| 20260507163222 | 79 | 0.0 | 0.0 | 0.00 | 0.00 | 0.00 | 39 | 1012.8 | |
| 20260507162222 | 80 | 0.0 | 0.0 | 0.00 | 0.00 | 0.00 | 37 | 1012.6 | |
| 20260507161242 | 80 | 0.0 | 0.0 | 0.00 | 0.00 | 0.00 | 37 | 1012.7 | |
| 20260507160222 | 80 | 0.0 | 0.0 | 0.00 | 0.00 | 0.00 | 36 | 1012.8 | |
| 20260507155222 | 81 | 0.0 | 0.0 | 0.00 | 0.00 | 0.00 | 36 | 1012.7 | |
| 20260507154222 | 79 | 0.0 | 0.0 | 0.00 | 0.00 | 0.00 | 38 | 1012.9 | |
| 20260507153221 | 77 | 0.0 | 0.0 | 0.00 | 0.00 | 0.00 | 41 | 1012.8 | |
| 20260507151222 | 78 | 0.0 | 0.0 | 0.00 | 0.00 | 0.00 | 41 | 1012.9 | |
| 20260507150222 | 78 | 0.0 | 0.0 | 0.00 | 0.00 | 0.00 | 42 | 1012.9 | |
| 20260507145221 | 77 | 0.0 | 0.0 | 0.00 | 0.00 | 0.00 | 41 | 1013.1 | |
| 20260507144222 | 77 | 0.0 | 0.0 | 0.00 | 0.00 | 0.00 | 42 | 1013.2 | |
| 20260507143222 | 76 | 0.0 | 0.0 | 0.00 | 0.00 | 0.00 | 41 | 1013.2 | |
| 20260507142221 | 76 | 0.0 | 0.0 | 0.00 | 0.00 | 0.00 | 42 | 1013.2 | |
| 20260507141221 | 77 | 0.0 | 0.0 | 0.00 | 0.00 | 0.00 | 43 | 1013.4 | |
| 20260507140221 | 76 | 0.0 | 0.0 | 0.00 | 0.00 | 0.00 | 44 | 1013.3 | |
| 20260507135222 | 76 | 0.0 | 0.0 | 0.00 | 0.00 | 0.00 | 43 | 1013.5 | |
| 20260507134221 | 76 | 0.0 | 0.0 | 0.00 | 0.00 | 0.00 | 42 | 1013.6 | |
| 20260507133222 | 75 | 0.0 | 0.0 | 0.00 | 0.00 | 0.00 | 43 | 1013.8 | |
| 20260507132221 | 75 | 0.0 | 0.0 | 0.00 | 0.00 | 0.00 | 43 | 1014.0 | |
| 20260507131222 | 75 | 0.0 | 0.0 | 0.00 | 0.00 | 0.00 | 43 | 1014.0 | |
| 20260507130221 | 74 | 0.0 | 0.0 | 0.00 | 0.00 | 0.00 | 44 | 1014.2 | |
| 20260507125222 | 74 | 0.0 | 0.0 | 0.00 | 0.00 | 0.00 | 45 | 1014.3 | |
| 20260507124221 | 73 | 0.0 | 0.0 | 0.00 | 0.00 | 0.00 | 45 | 1014.3 | |
| 20260507123222 | 72 | 0.0 | 0.0 | 0.00 | 0.00 | 0.00 | 44 | 1014.2 | |
| 20260507122221 | 72 | 0.0 | 0.0 | 0.00 | 0.00 | 0.00 | 45 | 1014.3 | |
| 20260507121221 | 72 | 0.0 | 0.0 | 0.00 | 0.00 | 0.00 | 45 | 1014.3 | |
| 20260507120222 | 71 | 0.0 | 0.0 | 0.00 | 0.00 | 0.00 | 45 | 1014.2 | |
| 20260507115221 | 71 | 0.0 | 0.0 | 0.00 | 0.00 | 0.00 | 45 | 1014.2 | |
| 20260507114222 | 71 | 0.0 | 0.0 | 0.00 | 0.00 | 0.00 | 46 | 1014.2 | |
| 20260507113222 | 70 | 0.0 | 0.0 | 0.00 | 0.00 | 0.00 | 47 | 1014.4 | |
| 20260507112221 | 70 | 0.0 | 0.0 | 0.00 | 0.00 | 0.00 | 49 | 1014.5 | |
| 20260507111222 | 69 | 0.0 | 0.0 | 0.00 | 0.00 | 0.00 | 47 | 1014.6 | |
| 20260507110222 | 69 | 0.0 | 0.0 | 0.00 | 0.00 | 0.00 | 47 | 1014.7 | |
| 20260507105221 | 70 | 0.0 | 0.0 | 0.00 | 0.00 | 0.00 | 48 | 1014.7 | |
| 20260507104222 | 69 | 0.0 | 0.0 | 0.00 | 0.00 | 0.00 | 48 | 1014.7 | |
| 20260507103222 | 69 | 0.0 | 0.0 | 0.00 | 0.00 | 0.00 | 50 | 1014.9 | |
| 20260507102222 | 68 | 0.0 | 0.0 | 0.00 | 0.00 | 0.00 | 51 | 1014.8 | |
| 20260507101221 | 68 | 0.0 | 0.0 | 0.00 | 0.00 | 0.00 | 49 | 1014.9 | |
| 20260507100221 | 68 | 0.0 | 0.0 | 0.00 | 0.00 | 0.00 | 49 | 1014.9 | |
| 20260507095221 | 69 | 0.0 | 0.0 | 0.00 | 0.00 | 0.00 | 49 | 1014.8 | |
| 20260507094221 | 70 | 0.0 | 0.0 | 0.00 | 0.00 | 0.00 | 49 | 1014.8 | |
| 20260507093221 | 70 | 0.0 | 0.0 | 0.00 | 0.00 | 0.00 | 52 | 1014.7 | |
| 20260507092221 | 69 | 0.0 | 0.0 | 0.00 | 0.00 | 0.00 | 52 | 1014.7 | |
| 20260507091221 | 68 | 0.0 | 0.0 | 0.00 | 0.00 | 0.00 | 55 | 1014.5 | |
| 20260507090221 | 68 | 0.0 | 0.0 | 0.00 | 0.00 | 0.00 | 59 | 1014.6 | |
| 20260507085221 | 68 | 0.0 | 0.0 | 0.00 | 0.00 | 0.00 | 62 | 1014.6 | |
| 20260507084221 | 67 | 0.0 | 0.0 | 0.00 | 0.00 | 0.00 | 61 | 1014.6 | |
| 20260507083221 | 67 | 0.0 | 0.0 | 0.00 | 0.00 | 0.00 | 62 | 1014.7 | |
| 20260507082221 | 67 | 0.0 | 0.0 | 0.00 | 0.00 | 0.00 | 66 | 1014.6 | |
| 20260507081221 | 67 | 0.0 | 0.0 | 0.00 | 0.00 | 0.00 | 71 | 1014.7 | |
| 20260507080221 | 66 | 0.0 | 0.0 | 0.00 | 0.00 | 0.00 | 71 | 1014.7 | |
| 20260507075221 | 65 | 0.0 | 0.0 | 0.00 | 0.00 | 0.00 | 74 | 1014.8 | |
| 20260507074221 | 65 | 0.0 | 0.0 | 0.00 | 0.00 | 0.00 | 75 | 1014.9 | |
| 20260507073221 | 64 | 0.0 | 0.0 | 0.00 | 0.00 | 0.00 | 76 | 1014.9 | |
| 20260507072221 | 64 | 0.0 | 0.0 | 0.00 | 0.00 | 0.00 | 80 | 1014.9 | |
| 20260507071221 | 63 | 0.0 | 0.0 | 0.00 | 0.00 | 0.00 | 81 | 1014.9 | |
| 20260507070221 | 62 | 0.0 | 0.0 | 0.00 | 0.00 | 0.00 | 84 | 1014.8 | |
| 20260507065221 | 62 | 0.0 | 0.0 | 0.00 | 0.00 | 0.00 | 87 | 1014.8 | |
| 20260507064221 | 61 | 0.0 | 0.0 | 0.00 | 0.00 | 0.00 | 89 | 1014.7 | |
| 20260507063221 | 61 | 0.0 | 0.0 | 0.00 | 0.00 | 0.00 | 91 | 1014.7 | |
| 20260507062221 | 60 | 0.0 | 0.0 | 0.00 | 0.00 | 0.00 | 93 | 1014.6 | |
| 20260507061221 | 60 | 0.0 | 0.0 | 0.00 | 0.00 | 0.00 | 95 | 1014.5 | |
| 20260507060221 | 59 | 0.0 | 0.0 | 0.00 | 0.00 | 0.00 | 95 | 1014.4 | |
| 20260507055221 | 59 | 0.0 | 0.0 | 0.00 | 0.00 | 0.00 | 95 | 1014.3 | |
| 20260507054221 | 58 | 0.0 | 0.0 | 0.00 | 0.00 | 0.00 | 95 | 1014.3 | |
| 20260507053221 | 58 | 0.0 | 0.0 | 0.00 | 0.00 | 0.00 | 96 | 1014.3 | |
| 20260507052221 | 57 | 0.0 | 0.0 | 0.00 | 0.00 | 0.00 | 97 | 1014.1 | |
| 20260507051221 | 56 | 0.0 | 0.0 | 0.00 | 0.00 | 0.00 | 98 | 1014.1 | |
| 20260507050221 | 56 | 0.0 | 0.0 | 0.00 | 0.00 | 0.00 | 98 | 1013.9 | |
| 20260507045221 | 55 | 0.0 | 0.0 | 0.00 | 0.00 | 0.00 | 98 | 1013.8 | |
| 20260507044221 | 55 | 0.0 | 0.0 | 0.00 | 0.00 | 0.00 | 98 | 1013.9 | |
| 20260507043221 | 55 | 0.0 | 0.0 | 0.00 | 0.00 | 0.00 | 99 | 1013.8 | |
| 20260507042221 | 55 | 0.0 | 0.0 | 0.00 | 0.00 | 0.00 | 98 | 1013.7 | |
| 20260507041221 | 55 | 0.0 | 0.0 | 0.00 | 0.00 | 0.00 | 98 | 1013.6 | |
| 20260507040221 | 55 | 0.0 | 0.0 | 0.00 | 0.00 | 0.00 | 98 | 1013.6 | |
| 20260507035221 | 55 | 0.0 | 0.0 | 0.00 | 0.00 | 0.00 | 98 | 1013.6 | |
| 20260507034221 | 55 | 0.0 | 0.0 | 0.00 | 0.00 | 0.00 | 97 | 1013.4 | |
| 20260507033221 | 55 | 0.0 | 0.0 | 0.00 | 0.00 | 0.00 | 97 | 1013.4 | |
| 20260507032221 | 55 | 0.0 | 0.0 | 0.00 | 0.00 | 0.00 | 97 | 1013.5 | |
| 20260507031221 | 55 | 0.0 | 0.0 | 0.00 | 0.00 | 0.00 | 96 | 1013.6 | |
| 20260507030221 | 56 | 0.0 | 0.0 | 0.00 | 0.00 | 0.00 | 96 | 1013.6 | |
| 20260507025221 | 56 | 0.0 | 0.0 | 0.00 | 0.00 | 0.00 | 96 | 1013.5 | |
| 20260507024221 | 56 | 0.0 | 0.0 | 0.00 | 0.00 | 0.00 | 96 | 1013.6 | |
| 20260507023221 | 56 | 0.0 | 0.0 | 0.00 | 0.00 | 0.00 | 95 | 1013.4 | |
| 20260507022221 | 56 | 0.0 | 0.0 | 0.00 | 0.00 | 0.00 | 95 | 1013.6 | |
| 20260507021221 | 56 | 0.0 | 0.0 | 0.00 | 0.00 | 0.00 | 94 | 1013.5 | |
| 20260507020221 | 56 | 0.0 | 0.0 | 0.00 | 0.00 | 0.00 | 95 | 1013.4 | |
| 20260507015221 | 56 | 0.0 | 0.0 | 0.00 | 0.00 | 0.00 | 96 | 1013.4 | |
| 20260507014221 | 57 | 0.0 | 0.0 | 0.00 | 0.00 | 0.00 | 96 | 1013.3 | |
| 20260507013221 | 57 | 0.0 | 0.0 | 0.00 | 0.00 | 0.00 | 96 | 1013.2 | |
| 20260507012221 | 57 | 0.0 | 0.0 | 0.00 | 0.00 | 0.00 | 95 | 1013.3 | |
| 20260507011221 | 57 | 0.0 | 0.0 | 0.00 | 0.00 | 0.00 | 95 | 1013.2 | |
| 20260507010221 | 57 | 0.0 | 0.0 | 0.00 | 0.00 | 0.00 | 96 | 1013.2 | |
| 20260507005221 | 57 | 0.0 | 0.0 | 0.00 | 0.00 | 0.00 | 95 | 1013.4 | |
| 20260507004221 | 57 | 0.0 | 0.0 | 0.00 | 0.00 | 0.00 | 94 | 1013.4 | |
| 20260507003221 | 57 | 0.0 | 0.0 | 0.00 | 0.00 | 0.00 | 95 | 1013.4 | |
| 20260507002221 | 57 | 0.0 | 0.0 | 0.00 | 0.00 | 0.00 | 93 | 1013.3 | |
| 20260507001221 | 58 | 0.0 | 0.0 | 0.00 | 0.00 | 0.00 | 93 | 1013.4 | |
| 20260507000221 | 59 | 0.0 | 0.0 | 0.00 | 0.00 | 0.00 | 89 | 1013.3 | |
| 20260506235221 | 59 | 0.0 | 0.0 | 0.00 | 0.00 | 0.00 | 86 | 1013.3 | |
| 20260506234221 | 59 | 0.0 | 0.0 | 0.00 | 0.00 | 0.00 | 84 | 1013.3 | |
| 20260506233220 | 60 | 0.0 | 0.0 | 0.00 | 0.00 | 0.00 | 80 | 1013.3 | |
| 20260506232221 | 62 | 0.0 | 0.0 | 0.00 | 0.00 | 0.00 | 74 | 1013.3 | |
| 20260506231221 | 63 | 0.0 | 0.0 | 0.00 | 0.00 | 0.00 | 79 | 1013.2 | |
| 20260506230220 | 64 | 0.0 | 0.0 | 0.00 | 0.00 | 0.00 | 97 | 1013.0 | |
| 20260506225221 | 64 | 0.0 | 0.0 | 0.00 | 0.00 | 0.00 | 97 | 1013.1 |